Year,Month,Day,Hour,Minute,Value (Times are PST for temperature in C)
2014,02,20,00,00,2.10
2014,02,20,00,01,2.10
2014,02,20,00,02,2.10
2014,02,20,00,03,2.10
2014,02,20,00,04,2.10
2014,02,20,00,05,2.00
2014,02,20,00,06,2.00
2014,02,20,00,07,2.00
2014,02,20,00,08,2.00
2014,02,20,00,09,2.00
2014,02,20,00,10,2.00
2014,02,20,00,11,2.00
2014,02,20,00,12,2.00
2014,02,20,00,13,1.90
2014,02,20,00,14,1.90
2014,02,20,00,15,1.90
2014,02,20,00,16,1.90
2014,02,20,00,17,1.90
2014,02,20,00,18,1.90
2014,02,20,00,19,1.90
2014,02,20,00,20,1.90
2014,02,20,00,21,1.90
2014,02,20,00,22,1.90
2014,02,20,00,23,1.90
2014,02,20,00,24,1.90
2014,02,20,00,25,2.00
2014,02,20,00,26,2.00
2014,02,20,00,27,2.00
2014,02,20,00,28,2.00
2014,02,20,00,29,2.00
2014,02,20,00,30,2.00
2014,02,20,00,31,1.90
2014,02,20,00,32,1.90
2014,02,20,00,33,1.90
2014,02,20,00,34,1.90
2014,02,20,00,35,1.90
2014,02,20,00,36,1.90
2014,02,20,00,37,1.90
2014,02,20,00,38,1.90
2014,02,20,00,39,1.90
2014,02,20,00,40,1.90
2014,02,20,00,41,1.90
2014,02,20,00,42,1.90
2014,02,20,00,43,1.90
2014,02,20,00,44,1.90
2014,02,20,00,45,1.90
2014,02,20,00,46,1.90
2014,02,20,00,47,1.90
2014,02,20,00,48,1.90
2014,02,20,00,49,1.90
2014,02,20,00,50,1.90
2014,02,20,00,51,1.90
2014,02,20,00,52,1.90
2014,02,20,00,53,1.90
2014,02,20,00,54,1.90
2014,02,20,00,55,1.90
2014,02,20,00,56,1.90
2014,02,20,00,57,1.90
2014,02,20,00,58,1.90
2014,02,20,00,59,1.90
2014,02,20,01,00,1.90
2014,02,20,01,01,1.90
2014,02,20,01,02,1.90
2014,02,20,01,03,1.90
2014,02,20,01,04,1.90
2014,02,20,01,05,1.90
2014,02,20,01,06,2.00
2014,02,20,01,07,1.90
2014,02,20,01,08,1.90
2014,02,20,01,09,1.90
2014,02,20,01,10,1.90
2014,02,20,01,11,1.90
2014,02,20,01,12,1.90
2014,02,20,01,13,1.90
2014,02,20,01,14,1.90
2014,02,20,01,15,1.90
2014,02,20,01,16,1.90
2014,02,20,01,17,1.90
2014,02,20,01,18,1.90
2014,02,20,01,19,1.90
2014,02,20,01,20,1.90
2014,02,20,01,21,1.90
2014,02,20,01,22,1.90
2014,02,20,01,23,1.90
2014,02,20,01,24,1.90
2014,02,20,01,25,1.90
2014,02,20,01,26,1.90
2014,02,20,01,27,1.90
2014,02,20,01,28,1.90
2014,02,20,01,29,1.90
2014,02,20,01,30,1.90
2014,02,20,01,31,1.90
2014,02,20,01,32,1.90
2014,02,20,01,33,1.90
2014,02,20,01,34,1.90
2014,02,20,01,35,1.90
2014,02,20,01,36,1.90
2014,02,20,01,37,1.90
2014,02,20,01,38,1.90
2014,02,20,01,39,1.90
2014,02,20,01,40,1.90
2014,02,20,01,41,1.90
2014,02,20,01,42,1.90
2014,02,20,01,43,1.90
2014,02,20,01,44,1.90
2014,02,20,01,45,1.90
2014,02,20,01,46,1.90
2014,02,20,01,47,1.90
2014,02,20,01,48,2.00
2014,02,20,01,49,2.00
2014,02,20,01,50,2.00
2014,02,20,01,51,2.00
2014,02,20,01,52,2.00
2014,02,20,01,53,2.00
2014,02,20,01,54,2.00
2014,02,20,01,55,2.00
2014,02,20,01,56,2.00
2014,02,20,01,57,2.00
2014,02,20,01,58,2.00
2014,02,20,01,59,2.00
2014,02,20,02,00,2.00
2014,02,20,02,01,2.00
2014,02,20,02,02,2.00
2014,02,20,02,03,2.00
2014,02,20,02,04,2.00
2014,02,20,02,05,2.00
2014,02,20,02,06,2.00
2014,02,20,02,07,2.00
2014,02,20,02,08,2.00
2014,02,20,02,09,2.00
2014,02,20,02,10,2.00
2014,02,20,02,11,2.00
2014,02,20,02,12,2.00
2014,02,20,02,13,2.00
2014,02,20,02,14,2.10
2014,02,20,02,15,2.10
2014,02,20,02,16,2.10
2014,02,20,02,17,2.10
2014,02,20,02,18,2.10
2014,02,20,02,19,2.10
2014,02,20,02,20,2.20
2014,02,20,02,21,2.20
2014,02,20,02,22,2.20
2014,02,20,02,23,2.20
2014,02,20,02,24,2.20
2014,02,20,02,25,2.20
2014,02,20,02,26,2.20
2014,02,20,02,27,2.20
2014,02,20,02,28,2.30
2014,02,20,02,29,2.30
2014,02,20,02,30,2.30
2014,02,20,02,31,2.30
2014,02,20,02,32,2.30
2014,02,20,02,33,2.30
2014,02,20,02,34,2.30
2014,02,20,02,35,2.30
2014,02,20,02,36,2.30
2014,02,20,02,37,2.30
2014,02,20,02,38,2.20
2014,02,20,02,39,2.20
2014,02,20,02,40,2.20
2014,02,20,02,41,2.20
2014,02,20,02,42,2.20
2014,02,20,02,43,2.20
2014,02,20,02,44,2.20
2014,02,20,02,45,2.20
2014,02,20,02,46,2.20
2014,02,20,02,47,2.20
2014,02,20,02,48,2.20
2014,02,20,02,49,2.20
2014,02,20,02,50,2.20
2014,02,20,02,51,2.30
2014,02,20,02,52,2.30
2014,02,20,02,53,2.30
2014,02,20,02,54,2.30
2014,02,20,02,55,2.30
2014,02,20,02,56,2.30
2014,02,20,02,57,2.30
2014,02,20,02,58,2.30
2014,02,20,02,59,2.30
2014,02,20,03,00,2.30
2014,02,20,03,01,2.30
2014,02,20,03,02,2.30
2014,02,20,03,03,2.30
2014,02,20,03,04,2.30
2014,02,20,03,05,2.30
2014,02,20,03,06,2.30
2014,02,20,03,07,2.30
2014,02,20,03,08,2.30
2014,02,20,03,09,2.30
2014,02,20,03,10,2.30
2014,02,20,03,11,2.30
2014,02,20,03,12,2.30
2014,02,20,03,13,2.30
2014,02,20,03,14,2.30
2014,02,20,03,15,2.30
2014,02,20,03,16,2.30
2014,02,20,03,17,2.30
2014,02,20,03,18,2.30
2014,02,20,03,19,2.30
2014,02,20,03,20,2.30
2014,02,20,03,21,2.30
2014,02,20,03,22,2.30
2014,02,20,03,23,2.30
2014,02,20,03,24,2.30
2014,02,20,03,25,2.30
2014,02,20,03,26,2.30
2014,02,20,03,27,2.30
2014,02,20,03,28,2.40
2014,02,20,03,29,2.40
2014,02,20,03,30,2.40
2014,02,20,03,31,2.40
2014,02,20,03,32,2.40
2014,02,20,03,33,2.50
2014,02,20,03,34,2.50
2014,02,20,03,35,2.60
2014,02,20,03,36,2.60
2014,02,20,03,37,2.70
2014,02,20,03,38,2.80
2014,02,20,03,39,2.90
2014,02,20,03,40,3.10
2014,02,20,03,41,3.30
2014,02,20,03,42,3.50
2014,02,20,03,43,3.70
2014,02,20,03,44,3.90
2014,02,20,03,45,4.10
2014,02,20,03,46,4.30
2014,02,20,03,47,4.50
2014,02,20,03,48,4.60
2014,02,20,03,49,4.80
2014,02,20,03,50,4.90
2014,02,20,03,51,5.00
2014,02,20,03,52,5.10
2014,02,20,03,53,5.10
2014,02,20,03,54,5.20
2014,02,20,03,55,5.20
2014,02,20,03,56,5.30
2014,02,20,03,57,5.30
2014,02,20,03,58,5.30
2014,02,20,03,59,5.40
2014,02,20,04,00,5.40
2014,02,20,04,01,5.40
2014,02,20,04,02,5.50
2014,02,20,04,03,5.50
2014,02,20,04,04,5.50
2014,02,20,04,05,5.50
2014,02,20,04,06,5.60
2014,02,20,04,07,5.60
2014,02,20,04,08,5.70
2014,02,20,04,09,5.70
2014,02,20,04,10,5.70
2014,02,20,04,11,5.80
2014,02,20,04,12,5.80
2014,02,20,04,13,5.90
2014,02,20,04,14,5.90
2014,02,20,04,15,5.90
2014,02,20,04,16,5.90
2014,02,20,04,17,6.00
2014,02,20,04,18,6.00
2014,02,20,04,19,6.00
2014,02,20,04,20,6.00
2014,02,20,04,21,6.00
2014,02,20,04,22,6.00
2014,02,20,04,23,6.00
2014,02,20,04,24,6.00
2014,02,20,04,25,6.00
2014,02,20,04,26,6.00
2014,02,20,04,27,6.00
2014,02,20,04,28,6.00
2014,02,20,04,29,6.00
2014,02,20,04,30,6.00
2014,02,20,04,31,6.00
2014,02,20,04,32,6.10
2014,02,20,04,33,6.10
2014,02,20,04,34,6.10
2014,02,20,04,35,6.10
2014,02,20,04,36,6.10
2014,02,20,04,37,6.20
2014,02,20,04,38,6.20
2014,02,20,04,39,6.20
2014,02,20,04,40,6.20
2014,02,20,04,41,6.30
2014,02,20,04,42,6.30
2014,02,20,04,43,6.30
2014,02,20,04,44,6.30
2014,02,20,04,45,6.40
2014,02,20,04,46,6.40
2014,02,20,04,47,6.40
2014,02,20,04,48,6.40
2014,02,20,04,49,6.40
2014,02,20,04,50,6.40
2014,02,20,04,51,6.40
2014,02,20,04,52,6.50
2014,02,20,04,53,6.50
2014,02,20,04,54,6.50
2014,02,20,04,55,6.50
2014,02,20,04,56,6.50
2014,02,20,04,57,6.60
2014,02,20,04,58,6.60
2014,02,20,04,59,6.60
2014,02,20,05,00,6.60
2014,02,20,05,01,6.60
2014,02,20,05,02,6.60
2014,02,20,05,03,6.60
2014,02,20,05,04,6.60
2014,02,20,05,05,6.60
2014,02,20,05,06,6.60
2014,02,20,05,07,6.60
2014,02,20,05,08,6.70
2014,02,20,05,09,6.70
2014,02,20,05,10,6.70
2014,02,20,05,11,6.70
2014,02,20,05,12,6.70
2014,02,20,05,13,6.70
2014,02,20,05,14,6.70
2014,02,20,05,15,6.70
2014,02,20,05,16,6.70
2014,02,20,05,17,6.70
2014,02,20,05,18,6.70
2014,02,20,05,19,6.70
2014,02,20,05,20,6.60
2014,02,20,05,21,6.60
2014,02,20,05,22,6.50
2014,02,20,05,23,6.40
2014,02,20,05,24,6.30
2014,02,20,05,25,6.30
2014,02,20,05,26,6.20
2014,02,20,05,27,6.20
2014,02,20,05,28,6.20
2014,02,20,05,29,6.20
2014,02,20,05,30,6.20
2014,02,20,05,31,6.20
2014,02,20,05,32,6.20
2014,02,20,05,33,6.20
2014,02,20,05,34,6.20
2014,02,20,05,35,6.20
2014,02,20,05,36,6.20
2014,02,20,05,37,6.20
2014,02,20,05,38,6.20
2014,02,20,05,39,6.20
2014,02,20,05,40,6.30
2014,02,20,05,41,6.30
2014,02,20,05,42,6.30
2014,02,20,05,43,6.30
2014,02,20,05,44,6.30
2014,02,20,05,45,6.30
2014,02,20,05,46,6.30
2014,02,20,05,47,6.30
2014,02,20,05,48,6.30
2014,02,20,05,49,6.30
2014,02,20,05,50,6.30
2014,02,20,05,51,6.30
2014,02,20,05,52,6.30
2014,02,20,05,53,6.30
2014,02,20,05,54,6.30
2014,02,20,05,55,6.30
2014,02,20,05,56,6.30
2014,02,20,05,57,6.30
2014,02,20,05,58,6.30
2014,02,20,05,59,6.30
2014,02,20,06,00,6.30
2014,02,20,06,01,6.20
2014,02,20,06,02,6.20
2014,02,20,06,03,6.20
2014,02,20,06,04,6.20
2014,02,20,06,05,6.20
2014,02,20,06,06,6.10
2014,02,20,06,07,6.10
2014,02,20,06,08,6.10
2014,02,20,06,09,6.10
2014,02,20,06,10,6.10
2014,02,20,06,11,6.10
2014,02,20,06,12,6.10
2014,02,20,06,13,6.10
2014,02,20,06,14,6.10
2014,02,20,06,15,6.10
2014,02,20,06,16,6.10
2014,02,20,06,17,6.10
2014,02,20,06,18,6.10
2014,02,20,06,19,6.10
2014,02,20,06,20,6.10
2014,02,20,06,21,6.10
2014,02,20,06,22,6.10
2014,02,20,06,23,6.10
2014,02,20,06,24,6.10
2014,02,20,06,25,6.10
2014,02,20,06,26,6.10
2014,02,20,06,27,6.10
2014,02,20,06,28,6.10
2014,02,20,06,29,6.10
2014,02,20,06,30,6.10
2014,02,20,06,31,6.10
2014,02,20,06,32,6.20
2014,02,20,06,33,6.20
2014,02,20,06,34,6.20
2014,02,20,06,35,6.30
2014,02,20,06,36,6.30
2014,02,20,06,37,6.30
2014,02,20,06,38,6.30
2014,02,20,06,39,6.30
2014,02,20,06,40,6.30
2014,02,20,06,41,6.30
2014,02,20,06,42,6.30
2014,02,20,06,43,6.30
2014,02,20,06,44,6.30
2014,02,20,06,45,6.30
2014,02,20,06,46,6.20
2014,02,20,06,47,6.20
2014,02,20,06,48,6.20
2014,02,20,06,49,6.20
2014,02,20,06,50,6.20
2014,02,20,06,51,6.20
2014,02,20,06,52,6.20
2014,02,20,06,53,6.20
2014,02,20,06,54,6.20
2014,02,20,06,55,6.20
2014,02,20,06,56,6.20
2014,02,20,06,57,6.20
2014,02,20,06,58,6.10
2014,02,20,06,59,6.10
2014,02,20,07,00,6.10
2014,02,20,07,01,6.10
2014,02,20,07,02,6.10
2014,02,20,07,03,6.10
2014,02,20,07,04,6.10
2014,02,20,07,05,6.10
2014,02,20,07,06,6.10
2014,02,20,07,07,6.10
2014,02,20,07,08,6.00
2014,02,20,07,09,6.00
2014,02,20,07,10,6.00
2014,02,20,07,11,6.00
2014,02,20,07,12,6.00
2014,02,20,07,13,6.00
2014,02,20,07,14,5.90
2014,02,20,07,15,5.90
2014,02,20,07,16,5.90
2014,02,20,07,17,5.90
2014,02,20,07,18,5.90
2014,02,20,07,19,5.90
2014,02,20,07,20,5.90
2014,02,20,07,21,5.90
2014,02,20,07,22,5.90
2014,02,20,07,23,5.90
2014,02,20,07,24,5.90
2014,02,20,07,25,5.90
2014,02,20,07,26,5.90
2014,02,20,07,27,5.90
2014,02,20,07,28,5.90
2014,02,20,07,29,5.90
2014,02,20,07,30,5.90
2014,02,20,07,31,5.90
2014,02,20,07,32,5.90
2014,02,20,07,33,5.90
2014,02,20,07,34,5.80
2014,02,20,07,35,5.90
2014,02,20,07,36,5.90
2014,02,20,07,37,5.90
2014,02,20,07,38,5.90
2014,02,20,07,39,5.90
2014,02,20,07,40,5.90
2014,02,20,07,41,5.90
2014,02,20,07,42,5.90
2014,02,20,07,43,5.90
2014,02,20,07,44,5.90
2014,02,20,07,45,5.90
2014,02,20,07,46,5.90
2014,02,20,07,47,5.90
2014,02,20,07,48,5.90
2014,02,20,07,49,5.90
2014,02,20,07,50,5.90
2014,02,20,07,51,5.90
2014,02,20,07,52,6.00
2014,02,20,07,53,6.00
2014,02,20,07,54,6.00
2014,02,20,07,55,6.00
2014,02,20,07,56,6.00
2014,02,20,07,57,6.10
2014,02,20,07,58,6.10
2014,02,20,07,59,6.20
2014,02,20,08,00,6.20
2014,02,20,08,01,6.20
2014,02,20,08,02,6.20
2014,02,20,08,03,6.20
2014,02,20,08,04,6.20
2014,02,20,08,05,6.20
2014,02,20,08,06,6.20
2014,02,20,08,07,6.20
2014,02,20,08,08,6.20
2014,02,20,08,09,6.20
2014,02,20,08,10,6.30
2014,02,20,08,11,6.30
2014,02,20,08,12,6.30
2014,02,20,08,13,6.30
2014,02,20,08,14,6.30
2014,02,20,08,15,6.30
2014,02,20,08,16,6.30
2014,02,20,08,17,6.30
2014,02,20,08,18,6.30
2014,02,20,08,19,6.30
2014,02,20,08,20,6.30
2014,02,20,08,21,6.30
2014,02,20,08,22,6.30
2014,02,20,08,23,6.30
2014,02,20,08,24,6.20
2014,02,20,08,25,6.20
2014,02,20,08,26,6.20
2014,02,20,08,27,6.10
2014,02,20,08,28,6.00
2014,02,20,08,29,6.00
2014,02,20,08,30,5.90
2014,02,20,08,31,5.90
2014,02,20,08,32,5.90
2014,02,20,08,33,5.80
2014,02,20,08,34,5.80
2014,02,20,08,35,5.80
2014,02,20,08,36,5.70
2014,02,20,08,37,5.70
2014,02,20,08,38,5.70
2014,02,20,08,39,5.70
2014,02,20,08,40,5.70
2014,02,20,08,41,5.70
2014,02,20,08,42,5.70
2014,02,20,08,43,5.70
2014,02,20,08,44,5.70
2014,02,20,08,45,5.70
2014,02,20,08,46,5.70
2014,02,20,08,47,5.70
2014,02,20,08,48,5.80
2014,02,20,08,49,5.80
2014,02,20,08,50,5.80
2014,02,20,08,51,5.80
2014,02,20,08,52,5.80
2014,02,20,08,53,5.80
2014,02,20,08,54,5.90
2014,02,20,08,55,5.90
2014,02,20,08,56,5.90
2014,02,20,08,57,5.90
2014,02,20,08,58,5.90
2014,02,20,08,59,6.00
2014,02,20,09,00,6.00
2014,02,20,09,01,6.00
2014,02,20,09,02,6.10
2014,02,20,09,03,6.10
2014,02,20,09,04,6.10
2014,02,20,09,05,6.20
2014,02,20,09,06,6.20
2014,02,20,09,07,6.20
2014,02,20,09,08,6.20
2014,02,20,09,09,6.30
2014,02,20,09,10,6.30
2014,02,20,09,11,6.30
2014,02,20,09,12,6.30
2014,02,20,09,13,6.30
2014,02,20,09,14,6.30
2014,02,20,09,15,6.30
2014,02,20,09,16,6.40
2014,02,20,09,17,6.40
2014,02,20,09,18,6.40
2014,02,20,09,19,6.40
2014,02,20,09,20,6.40
2014,02,20,09,21,6.50
2014,02,20,09,22,6.50
2014,02,20,09,23,6.50
2014,02,20,09,24,6.50
2014,02,20,09,25,6.60
2014,02,20,09,26,6.60
2014,02,20,09,27,6.60
2014,02,20,09,28,6.60
2014,02,20,09,29,6.60
2014,02,20,09,30,6.60
2014,02,20,09,31,6.70
2014,02,20,09,32,6.70
2014,02,20,09,33,6.70
2014,02,20,09,34,6.70
2014,02,20,09,35,6.70
2014,02,20,09,36,6.70
2014,02,20,09,37,6.70
2014,02,20,09,38,6.70
2014,02,20,09,39,6.80
2014,02,20,09,40,6.80
2014,02,20,09,41,6.80
2014,02,20,09,42,6.80
2014,02,20,09,43,6.80
2014,02,20,09,44,6.80
2014,02,20,09,45,6.80
2014,02,20,09,46,6.80
2014,02,20,09,47,6.80
2014,02,20,09,48,6.80
2014,02,20,09,49,6.80
2014,02,20,09,50,6.80
2014,02,20,09,51,6.80
2014,02,20,09,52,6.80
2014,02,20,09,53,6.80
2014,02,20,09,54,6.80
2014,02,20,09,55,6.80
2014,02,20,09,56,6.80
2014,02,20,09,57,6.80
2014,02,20,09,58,6.80
2014,02,20,09,59,6.80
2014,02,20,10,00,6.80
2014,02,20,10,01,6.80
2014,02,20,10,02,6.80
2014,02,20,10,03,6.80
2014,02,20,10,04,6.80
2014,02,20,10,05,6.80
2014,02,20,10,06,6.80
2014,02,20,10,07,6.80
2014,02,20,10,08,6.80
2014,02,20,10,09,6.80
2014,02,20,10,10,6.90
2014,02,20,10,11,6.90
2014,02,20,10,12,6.90
2014,02,20,10,13,6.90
2014,02,20,10,14,6.90
2014,02,20,10,15,6.90
2014,02,20,10,16,6.90
2014,02,20,10,17,6.90
2014,02,20,10,18,6.90
2014,02,20,10,19,6.90
2014,02,20,10,20,6.90
2014,02,20,10,21,6.90
2014,02,20,10,22,6.90
2014,02,20,10,23,6.90
2014,02,20,10,24,6.90
2014,02,20,10,25,6.90
2014,02,20,10,26,6.90
2014,02,20,10,27,6.90
2014,02,20,10,28,6.90
2014,02,20,10,29,6.90
2014,02,20,10,30,6.90
2014,02,20,10,31,6.90
2014,02,20,10,32,6.90
2014,02,20,10,33,6.90
2014,02,20,10,34,7.00
2014,02,20,10,35,7.00
2014,02,20,10,36,7.00
2014,02,20,10,37,7.00
2014,02,20,10,38,7.00
2014,02,20,10,39,7.00
2014,02,20,10,40,7.00
2014,02,20,10,41,7.00
2014,02,20,10,42,7.00
2014,02,20,10,43,7.00
2014,02,20,10,44,7.10
2014,02,20,10,45,7.10
2014,02,20,10,46,7.10
2014,02,20,10,47,7.10
2014,02,20,10,48,7.10
2014,02,20,10,49,7.10
2014,02,20,10,50,7.10
2014,02,20,10,51,7.10
2014,02,20,10,52,7.10
2014,02,20,10,53,7.10
2014,02,20,10,54,7.10
2014,02,20,10,55,7.20
2014,02,20,10,56,7.20
2014,02,20,10,57,7.30
2014,02,20,10,58,7.30
2014,02,20,10,59,7.30
2014,02,20,11,00,7.30
2014,02,20,11,01,7.30
2014,02,20,11,02,7.30
2014,02,20,11,03,7.20
2014,02,20,11,04,7.20
2014,02,20,11,05,7.30
2014,02,20,11,06,7.30
2014,02,20,11,07,7.30
2014,02,20,11,08,7.20
2014,02,20,11,09,7.30
2014,02,20,11,10,7.30
2014,02,20,11,11,7.30
2014,02,20,11,12,7.30
2014,02,20,11,13,7.30
2014,02,20,11,14,7.30
2014,02,20,11,15,7.30
2014,02,20,11,16,7.30
2014,02,20,11,17,7.20
2014,02,20,11,18,7.20
2014,02,20,11,19,7.20
2014,02,20,11,20,7.10
2014,02,20,11,21,7.10
2014,02,20,11,22,7.00
2014,02,20,11,23,7.00
2014,02,20,11,24,6.90
2014,02,20,11,25,6.80
2014,02,20,11,26,6.80
2014,02,20,11,27,6.80
2014,02,20,11,28,6.80
2014,02,20,11,29,6.80
2014,02,20,11,30,6.70
2014,02,20,11,31,6.70
2014,02,20,11,32,6.70
2014,02,20,11,33,6.70
2014,02,20,11,34,6.70
2014,02,20,11,35,6.70
2014,02,20,11,36,6.70
2014,02,20,11,37,6.70
2014,02,20,11,38,6.70
2014,02,20,11,39,6.70
2014,02,20,11,40,6.70
2014,02,20,11,41,6.70
2014,02,20,11,42,6.70
2014,02,20,11,43,6.60
2014,02,20,11,44,6.60
2014,02,20,11,45,6.50
2014,02,20,11,46,6.40
2014,02,20,11,47,6.40
2014,02,20,11,48,6.30
2014,02,20,11,49,6.20
2014,02,20,11,50,6.10
2014,02,20,11,51,6.00
2014,02,20,11,52,5.90
2014,02,20,11,53,5.80
2014,02,20,11,54,5.70
2014,02,20,11,55,5.50
2014,02,20,11,56,5.40
2014,02,20,11,57,5.20
2014,02,20,11,58,5.20
2014,02,20,11,59,5.10
2014,02,20,12,00,5.00
2014,02,20,12,01,5.00
2014,02,20,12,02,5.00
2014,02,20,12,03,5.00
2014,02,20,12,04,5.00
2014,02,20,12,05,5.00
2014,02,20,12,06,5.00
2014,02,20,12,07,5.00
2014,02,20,12,08,5.10
2014,02,20,12,09,5.10
2014,02,20,12,10,5.10
2014,02,20,12,11,5.20
2014,02,20,12,12,5.20
2014,02,20,12,13,5.30
2014,02,20,12,14,5.30
2014,02,20,12,15,5.30
2014,02,20,12,16,5.40
2014,02,20,12,17,5.40
2014,02,20,12,18,5.40
2014,02,20,12,19,5.40
2014,02,20,12,20,5.50
2014,02,20,12,21,5.50
2014,02,20,12,22,5.60
2014,02,20,12,23,5.60
2014,02,20,12,24,5.60
2014,02,20,12,25,5.70
2014,02,20,12,26,5.70
2014,02,20,12,27,5.70
2014,02,20,12,28,5.80
2014,02,20,12,29,5.80
2014,02,20,12,30,5.80
2014,02,20,12,31,5.80
2014,02,20,12,32,5.80
2014,02,20,12,33,5.80
2014,02,20,12,34,5.90
2014,02,20,12,35,5.90
2014,02,20,12,36,6.00
2014,02,20,12,37,6.00
2014,02,20,12,38,6.10
2014,02,20,12,39,6.10
2014,02,20,12,40,6.10
2014,02,20,12,41,6.10
2014,02,20,12,42,6.10
2014,02,20,12,43,6.00
2014,02,20,12,44,6.00
2014,02,20,12,45,6.00
2014,02,20,12,46,5.90
2014,02,20,12,47,5.80
2014,02,20,12,48,5.80
2014,02,20,12,49,5.70
2014,02,20,12,50,5.70
2014,02,20,12,51,5.70
2014,02,20,12,52,5.70
2014,02,20,12,53,5.70
2014,02,20,12,54,5.70
2014,02,20,12,55,5.70
2014,02,20,12,56,5.70
2014,02,20,12,57,5.80
2014,02,20,12,58,5.80
2014,02,20,12,59,5.80
2014,02,20,13,00,5.90
2014,02,20,13,01,5.90
2014,02,20,13,02,6.00
2014,02,20,13,03,6.00
2014,02,20,13,04,6.10
2014,02,20,13,05,6.10
2014,02,20,13,06,6.10
2014,02,20,13,07,6.10
2014,02,20,13,08,6.10
2014,02,20,13,09,6.00
2014,02,20,13,10,6.00
2014,02,20,13,11,5.90
2014,02,20,13,12,5.90
2014,02,20,13,13,5.90
2014,02,20,13,14,5.90
2014,02,20,13,15,5.90
2014,02,20,13,16,5.90
2014,02,20,13,17,5.80
2014,02,20,13,18,5.80
2014,02,20,13,19,5.80
2014,02,20,13,20,5.80
2014,02,20,13,21,5.80
2014,02,20,13,22,5.80
2014,02,20,13,23,5.80
2014,02,20,13,24,5.80
2014,02,20,13,25,5.80
2014,02,20,13,26,5.80
2014,02,20,13,27,5.80
2014,02,20,13,28,5.70
2014,02,20,13,29,5.70
2014,02,20,13,30,5.70
2014,02,20,13,31,5.70
2014,02,20,13,32,5.70
2014,02,20,13,33,5.70
2014,02,20,13,34,5.70
2014,02,20,13,35,5.70
2014,02,20,13,36,5.70
2014,02,20,13,37,5.70
2014,02,20,13,38,5.70
2014,02,20,13,39,5.70
2014,02,20,13,40,5.70
2014,02,20,13,41,5.70
2014,02,20,13,42,5.70
2014,02,20,13,43,5.70
2014,02,20,13,44,5.80
2014,02,20,13,45,5.80
2014,02,20,13,46,5.80
2014,02,20,13,47,5.80
2014,02,20,13,48,5.80
2014,02,20,13,49,5.80
2014,02,20,13,50,5.80
2014,02,20,13,51,5.90
2014,02,20,13,52,5.90
2014,02,20,13,53,5.90
2014,02,20,13,54,5.90
2014,02,20,13,55,6.00
2014,02,20,13,56,6.00
2014,02,20,13,57,6.00
2014,02,20,13,58,6.10
2014,02,20,13,59,6.00
2014,02,20,14,00,6.00
2014,02,20,14,01,6.00
2014,02,20,14,02,6.00
2014,02,20,14,03,5.90
2014,02,20,14,04,5.90
2014,02,20,14,05,5.90
2014,02,20,14,06,5.90
2014,02,20,14,07,5.90
2014,02,20,14,08,5.90
2014,02,20,14,09,5.90
2014,02,20,14,10,5.90
2014,02,20,14,11,5.90
2014,02,20,14,12,5.90
2014,02,20,14,13,5.90
2014,02,20,14,14,5.90
2014,02,20,14,15,5.90
2014,02,20,14,16,5.90
2014,02,20,14,17,5.90
2014,02,20,14,18,5.90
2014,02,20,14,19,5.90
2014,02,20,14,20,5.80
2014,02,20,14,21,5.80
2014,02,20,14,22,5.80
2014,02,20,14,23,5.80
2014,02,20,14,24,5.80
2014,02,20,14,25,5.80
2014,02,20,14,26,5.80
2014,02,20,14,27,5.80
2014,02,20,14,28,5.80
2014,02,20,14,29,5.80
2014,02,20,14,30,5.80
2014,02,20,14,31,5.80
2014,02,20,14,32,5.70
2014,02,20,14,33,5.70
2014,02,20,14,34,5.60
2014,02,20,14,35,5.60
2014,02,20,14,36,5.60
2014,02,20,14,37,5.60
2014,02,20,14,38,5.70
2014,02,20,14,39,5.60
2014,02,20,14,40,5.70
2014,02,20,14,41,5.70
2014,02,20,14,42,5.70
2014,02,20,14,43,5.80
2014,02,20,14,44,5.80
2014,02,20,14,45,5.80
2014,02,20,14,46,5.90
2014,02,20,14,47,5.90
2014,02,20,14,48,5.90
2014,02,20,14,49,6.00
2014,02,20,14,50,6.00
2014,02,20,14,51,6.00
2014,02,20,14,52,6.00
2014,02,20,14,53,6.10
2014,02,20,14,54,6.10
2014,02,20,14,55,6.10
2014,02,20,14,56,6.20
2014,02,20,14,57,6.20
2014,02,20,14,58,6.20
2014,02,20,14,59,6.20
2014,02,20,15,00,6.20
2014,02,20,15,01,6.20
2014,02,20,15,02,6.20
2014,02,20,15,03,6.20
2014,02,20,15,04,6.20
2014,02,20,15,05,6.20
2014,02,20,15,06,6.20
2014,02,20,15,07,6.20
2014,02,20,15,08,6.30
2014,02,20,15,09,6.30
2014,02,20,15,10,6.30
2014,02,20,15,11,6.30
2014,02,20,15,12,6.30
2014,02,20,15,13,6.30
2014,02,20,15,14,6.40
2014,02,20,15,15,6.40
2014,02,20,15,16,6.40
2014,02,20,15,17,6.40
2014,02,20,15,18,6.50
2014,02,20,15,19,6.50
2014,02,20,15,20,6.50
2014,02,20,15,21,6.60
2014,02,20,15,22,6.60
2014,02,20,15,23,6.60
2014,02,20,15,24,6.60
2014,02,20,15,25,6.50
2014,02,20,15,26,6.50
2014,02,20,15,27,6.40
2014,02,20,15,28,6.30
2014,02,20,15,29,6.20
2014,02,20,15,30,6.10
2014,02,20,15,31,6.00
2014,02,20,15,32,5.90
2014,02,20,15,33,5.80
2014,02,20,15,34,5.80
2014,02,20,15,35,5.70
2014,02,20,15,36,5.60
2014,02,20,15,37,5.60
2014,02,20,15,38,5.50
2014,02,20,15,39,5.40
2014,02,20,15,40,5.40
2014,02,20,15,41,5.30
2014,02,20,15,42,5.30
2014,02,20,15,43,5.30
2014,02,20,15,44,5.30
2014,02,20,15,45,5.20
2014,02,20,15,46,5.20
2014,02,20,15,47,5.20
2014,02,20,15,48,5.20
2014,02,20,15,49,5.20
2014,02,20,15,50,5.20
2014,02,20,15,51,5.20
2014,02,20,15,52,5.20
2014,02,20,15,53,5.20
2014,02,20,15,54,5.20
2014,02,20,15,55,5.20
2014,02,20,15,56,5.20
2014,02,20,15,57,5.20
2014,02,20,15,58,5.20
2014,02,20,15,59,5.20
2014,02,20,16,00,5.20
2014,02,20,16,01,5.30
2014,02,20,16,02,5.30
2014,02,20,16,03,5.30
2014,02,20,16,04,5.30
2014,02,20,16,05,5.30
2014,02,20,16,06,5.30
2014,02,20,16,07,5.40
2014,02,20,16,08,5.40
2014,02,20,16,09,5.40
2014,02,20,16,10,5.50
2014,02,20,16,11,5.60
2014,02,20,16,12,5.60
2014,02,20,16,13,5.60
2014,02,20,16,14,5.60
2014,02,20,16,15,5.60
2014,02,20,16,16,5.60
2014,02,20,16,17,5.60
2014,02,20,16,18,5.60
2014,02,20,16,19,5.60
2014,02,20,16,20,5.60
2014,02,20,16,21,5.60
2014,02,20,16,22,5.60
2014,02,20,16,23,5.60
2014,02,20,16,24,5.60
2014,02,20,16,25,5.60
2014,02,20,16,26,5.60
2014,02,20,16,27,5.60
2014,02,20,16,28,5.60
2014,02,20,16,29,5.60
2014,02,20,16,30,5.60
2014,02,20,16,31,5.60
2014,02,20,16,32,5.60
2014,02,20,16,33,5.60
2014,02,20,16,34,5.70
2014,02,20,16,35,5.70
2014,02,20,16,36,5.80
2014,02,20,16,37,5.80
2014,02,20,16,38,5.90
2014,02,20,16,39,5.90
2014,02,20,16,40,5.90
2014,02,20,16,41,6.00
2014,02,20,16,42,6.00
2014,02,20,16,43,6.10
2014,02,20,16,44,6.10
2014,02,20,16,45,6.10
2014,02,20,16,46,6.10
2014,02,20,16,47,6.10
2014,02,20,16,48,6.10
2014,02,20,16,49,6.10
2014,02,20,16,50,6.00
2014,02,20,16,51,6.00
2014,02,20,16,52,6.00
2014,02,20,16,53,5.90
2014,02,20,16,54,5.90
2014,02,20,16,55,5.90
2014,02,20,16,56,5.90
2014,02,20,16,57,5.90
2014,02,20,16,58,5.80
2014,02,20,16,59,5.80
2014,02,20,17,00,5.80
2014,02,20,17,01,5.80
2014,02,20,17,02,5.80
2014,02,20,17,03,5.80
2014,02,20,17,04,5.80
2014,02,20,17,05,5.80
2014,02,20,17,06,5.80
2014,02,20,17,07,5.80
2014,02,20,17,08,5.80
2014,02,20,17,09,5.80
2014,02,20,17,10,5.80
2014,02,20,17,11,5.80
2014,02,20,17,12,5.80
2014,02,20,17,13,5.80
2014,02,20,17,14,5.80
2014,02,20,17,15,5.80
2014,02,20,17,16,5.80
2014,02,20,17,17,5.80
2014,02,20,17,18,5.80
2014,02,20,17,19,5.80
2014,02,20,17,20,5.80
2014,02,20,17,21,5.80
2014,02,20,17,22,5.80
2014,02,20,17,23,5.80
2014,02,20,17,24,5.80
2014,02,20,17,25,5.90
2014,02,20,17,26,5.90
2014,02,20,17,27,5.90
2014,02,20,17,28,5.90
2014,02,20,17,29,5.80
2014,02,20,17,30,5.80
2014,02,20,17,31,5.80
2014,02,20,17,32,5.80
2014,02,20,17,33,5.80
2014,02,20,17,34,5.80
2014,02,20,17,35,5.80
2014,02,20,17,36,5.80
2014,02,20,17,37,5.80
2014,02,20,17,38,5.80
2014,02,20,17,39,5.80
2014,02,20,17,40,5.80
2014,02,20,17,41,5.80
2014,02,20,17,42,5.80
2014,02,20,17,43,5.80
2014,02,20,17,44,5.80
2014,02,20,17,45,5.80
2014,02,20,17,46,5.80
2014,02,20,17,47,5.80
2014,02,20,17,48,5.80
2014,02,20,17,49,5.80
2014,02,20,17,50,5.80
2014,02,20,17,51,5.80
2014,02,20,17,52,5.80
2014,02,20,17,53,5.80
2014,02,20,17,54,5.80
2014,02,20,17,55,5.80
2014,02,20,17,56,5.80
2014,02,20,17,57,5.90
2014,02,20,17,58,5.90
2014,02,20,17,59,5.90
2014,02,20,18,00,5.90
2014,02,20,18,01,5.90
2014,02,20,18,02,5.90
2014,02,20,18,03,5.80
2014,02,20,18,04,5.80
2014,02,20,18,05,5.80
2014,02,20,18,06,5.80